TimeCDT,TemperatureF,Dew PointF,Humidity,Sea Level PressureIn,VisibilityMPH,Wind Direction,Wind SpeedMPH,Gust SpeedMPH,PrecipitationIn,Events,Conditions,WindDirDegrees,DateUTC
12:14 AM,48.2,35.6,62,30.28,10.0,Calm,Calm,-,N/A,,Clear,0,2012-05-13 05:14:00
12:34 AM,48.2,35.6,62,30.28,10.0,Calm,Calm,-,N/A,,Clear,0,2012-05-13 05:34:00
12:54 AM,48.2,32.0,54,30.28,10.0,SSW,4.6,-,N/A,,Clear,210,2012-05-13 05:54:00
1:14 AM,50.0,33.8,54,30.27,10.0,SSW,5.8,-,N/A,,Clear,200,2012-05-13 06:14:00
1:55 AM,48.2,33.8,58,30.27,10.0,Calm,Calm,-,N/A,,Clear,0,2012-05-13 06:55:00
2:14 AM,46.4,33.8,62,30.27,10.0,Calm,Calm,-,N/A,,Clear,0,2012-05-13 07:14:00
2:34 AM,44.6,33.8,66,30.26,10.0,SSW,3.5,-,N/A,,Clear,200,2012-05-13 07:34:00
2:54 AM,44.6,35.6,71,30.26,10.0,SSW,3.5,-,N/A,,Clear,210,2012-05-13 07:54:00
3:14 AM,44.6,35.6,71,30.26,10.0,Calm,Calm,-,N/A,,Clear,0,2012-05-13 08:14:00
3:34 AM,44.6,33.8,66,30.26,10.0,Calm,Calm,-,N/A,,Clear,0,2012-05-13 08:34:00
3:54 AM,42.8,32.0,66,30.26,10.0,SW,3.5,-,N/A,,Clear,220,2012-05-13 08:54:00
4:14 AM,41.0,33.8,76,30.26,10.0,Calm,Calm,-,N/A,,Clear,0,2012-05-13 09:14:00
4:34 AM,42.8,33.8,70,30.26,10.0,Calm,Calm,-,N/A,,Clear,0,2012-05-13 09:34:00
4:54 AM,39.2,33.8,81,30.26,10.0,Calm,Calm,-,N/A,,Clear,0,2012-05-13 09:54:00
5:14 AM,44.6,39.2,81,30.26,10.0,SSW,3.5,-,N/A,,Clear,210,2012-05-13 10:14:00
5:34 AM,42.8,35.6,76,30.26,10.0,Calm,Calm,-,N/A,,Clear,0,2012-05-13 10:34:00
6:15 AM,39.2,33.8,81,30.26,10.0,Calm,Calm,-,N/A,,Clear,0,2012-05-13 11:15:00
6:34 AM,39.2,35.6,87,30.26,10.0,Calm,Calm,-,N/A,,Clear,0,2012-05-13 11:34:00
7:14 AM,44.6,39.2,81,30.26,10.0,Calm,Calm,-,N/A,,Clear,0,2012-05-13 12:14:00
7:34 AM,48.2,37.4,66,30.26,10.0,Calm,Calm,-,N/A,,Clear,0,2012-05-13 12:34:00
7:54 AM,51.8,37.4,58,30.25,10.0,SW,3.5,-,N/A,,Clear,230,2012-05-13 12:54:00
8:14 AM,53.6,35.6,51,30.25,7.0,WSW,5.8,-,N/A,,Clear,250,2012-05-13 13:14:00
8:34 AM,55.4,37.4,51,30.25,10.0,WSW,6.9,-,N/A,,Clear,240,2012-05-13 13:34:00
8:54 AM,57.2,35.6,44,30.25,10.0,WSW,6.9,-,N/A,,Clear,250,2012-05-13 13:54:00
9:14 AM,60.8,35.6,39,30.25,10.0,WSW,6.9,-,N/A,,Clear,240,2012-05-13 14:14:00
9:34 AM,62.6,33.8,34,30.24,10.0,WSW,9.2,-,N/A,,Clear,240,2012-05-13 14:34:00
9:54 AM,64.4,30.2,28,30.24,10.0,WSW,8.1,-,N/A,,Clear,250,2012-05-13 14:54:00
10:15 AM,66.2,24.8,21,30.23,10.0,WSW,12.7,-,N/A,,Clear,250,2012-05-13 15:15:00
10:35 AM,66.2,24.8,21,30.22,10.0,West,10.4,20.7,N/A,,Clear,260,2012-05-13 15:35:00
11:14 AM,69.8,26.6,20,30.22,10.0,West,10.4,19.6,N/A,,Clear,260,2012-05-13 16:14:00
11:34 AM,69.8,26.6,20,30.21,10.0,West,13.8,19.6,N/A,,Clear,280,2012-05-13 16:34:00
12:14 PM,69.8,28.4,21,30.20,10.0,West,9.2,19.6,N/A,,Clear,280,2012-05-13 17:14:00
12:34 PM,69.8,26.6,20,30.20,10.0,West,13.8,21.9,N/A,,Clear,270,2012-05-13 17:34:00
12:55 PM,71.6,28.4,20,30.19,10.0,West,12.7,21.9,N/A,,Clear,260,2012-05-13 17:55:00
1:14 PM,73.4,28.4,19,30.18,10.0,West,15.0,21.9,N/A,,Clear,280,2012-05-13 18:14:00
1:34 PM,71.6,26.6,19,30.17,10.0,West,12.7,23.0,N/A,,Clear,270,2012-05-13 18:34:00
1:54 PM,71.6,26.6,19,30.17,10.0,West,15.0,18.4,N/A,,Clear,260,2012-05-13 18:54:00
2:15 PM,73.4,28.4,19,30.16,10.0,West,9.2,20.7,N/A,,Clear,280,2012-05-13 19:15:00
2:34 PM,73.4,30.2,20,30.15,10.0,West,10.4,20.7,N/A,,Clear,260,2012-05-13 19:34:00
2:55 PM,73.4,28.4,19,30.14,10.0,WSW,17.3,23.0,N/A,,Clear,250,2012-05-13 19:55:00
3:14 PM,73.4,30.2,20,30.13,10.0,West,9.2,-,N/A,,Clear,270,2012-05-13 20:14:00
3:35 PM,75.2,30.2,19,30.12,10.0,West,12.7,24.2,N/A,,Clear,270,2012-05-13 20:35:00
3:55 PM,75.2,28.4,18,30.11,10.0,West,15.0,18.4,N/A,,Clear,270,2012-05-13 20:55:00
4:14 PM,75.2,30.2,19,30.10,10.0,West,12.7,20.7,N/A,,Clear,270,2012-05-13 21:14:00
4:34 PM,75.2,26.6,17,30.10,10.0,WSW,15.0,23.0,N/A,,Clear,240,2012-05-13 21:34:00
4:54 PM,75.2,26.6,17,30.09,10.0,West,17.3,-,N/A,,Clear,270,2012-05-13 21:54:00
5:14 PM,75.2,28.4,18,30.08,10.0,WSW,13.8,20.7,N/A,,Clear,240,2012-05-13 22:14:00
5:34 PM,75.2,26.6,17,30.08,10.0,West,16.1,20.7,N/A,,Clear,260,2012-05-13 22:34:00
6:14 PM,75.2,28.4,18,30.07,10.0,WSW,18.4,24.2,N/A,,Clear,250,2012-05-13 23:14:00
6:34 PM,75.2,28.4,18,30.07,10.0,WSW,17.3,-,N/A,,Clear,250,2012-05-13 23:34:00
6:55 PM,73.4,30.2,20,30.06,10.0,West,16.1,-,N/A,,Clear,260,2012-05-13 23:55:00
7:14 PM,73.4,32.0,22,30.06,10.0,West,11.5,-,N/A,,Clear,260,2012-05-14 00:14:00
7:34 PM,71.6,33.8,25,30.06,10.0,West,10.4,-,N/A,,Clear,260,2012-05-14 00:34:00
7:54 PM,69.8,33.8,27,30.06,10.0,WSW,9.2,-,N/A,,Clear,250,2012-05-14 00:54:00
8:14 PM,68.0,35.6,30,30.06,10.0,WSW,5.8,-,N/A,,Clear,240,2012-05-14 01:14:00
8:34 PM,64.4,35.6,34,30.06,10.0,SW,5.8,-,N/A,,Clear,230,2012-05-14 01:34:00
9:14 PM,64.4,35.6,34,30.06,10.0,SW,6.9,-,N/A,,Clear,220,2012-05-14 02:14:00
9:34 PM,64.4,35.6,34,30.06,10.0,SW,8.1,-,N/A,,Clear,220,2012-05-14 02:34:00
9:54 PM,64.4,35.6,34,30.06,10.0,SW,9.2,-,N/A,,Clear,220,2012-05-14 02:54:00
10:14 PM,62.6,35.6,37,30.06,10.0,SSW,6.9,-,N/A,,Clear,210,2012-05-14 03:14:00
10:34 PM,62.6,37.4,39,30.05,10.0,Calm,Calm,-,N/A,,Clear,200,2012-05-14 03:34:00
10:54 PM,62.6,39.2,42,30.05,10.0,SSW,10.4,-,N/A,,Clear,210,2012-05-14 03:54:00
11:14 PM,60.8,42.8,52,30.04,10.0,SW,10.4,-,N/A,,Clear,220,2012-05-14 04:14:00
11:34 PM,60.8,42.8,52,30.04,10.0,SW,11.5,-,N/A,,Clear,220,2012-05-14 04:34:00
11:54 PM,60.8,41.0,48,30.03,10.0,SW,12.7,-,N/A,,Clear,220,2012-05-14 04:54:00